Hourly Weather Roundup
Issued by NWS Central Illinois

Home | Current Version | Previous Version | Graphics & Text | Print | Product List | Glossary On
Versions: 1 2 3 4 5 6 7 8 9 10 11 12 13 14 15 16 17 18 19 20 21 22 23 24 25 26 27 28 29 30 31 32 33 34 35 36 37 38 39 40 41 42 43 44 45 46 47 48 49 50
360
NZUS43 KILX 110910
HWRILX

AREA WEATHER ROUNDUP
NATIONAL WEATHER SERVICE, LINCOLN IL
300 AM CST THU FEB 11 2016


CITY           SKY/WX    TMP DP  RH WIND       PRES   REMARKS
BLOOMINGTON    CLOUDY    12   6  77 NE8       30.20R WCI   0
CHAMPAIGN      CLOUDY    15   6  67 N5        30.19R WCI   8
DANVILLE       CLOUDY    12   8  81 NW3       30.16R
DECATUR        CLOUDY    17   7  64 N7        30.20R WCI   8
EFFINGHAM      FLURRIES  21  18  86 N5        30.21S WCI  15
FLORA          FLURRIES  23  19  85 CALM      30.20R
GALESBURG      PTCLDY     8   4  83 CALM      30.23R
JACKSONVILLE   CLOUDY    22  16  77 N6        30.21S WCI  14
LACON          CLOUDY    12   4  71 N3        30.23R
LAWRENCEVILLE  CLOUDY    21  15  78 N7        30.20S WCI  12
LITCHFIELD     CLOUDY    19  16  85 N8        30.19R WCI   9
$$


CITY           SKY/WX    TMP DP  RH WIND       PRES   REMARKS
LINCOLN        CLOUDY    17   9  71 N5        30.22S WCI  10
MACOMB         CLOUDY    15   8  73 N7        30.25R WCI   5
MATTOON        CLOUDY    18   8  65 N6        30.19R WCI  10
MT CARMEL AP   CLOUDY    21  18  86 N3        30.20R
OLNEY-NOBLE AP CLOUDY    21  19  93 NE5       30.20R WCI  15
PARIS          CLOUDY    14   9  80 CALM      30.21R
PEORIA         CLOUDY    12   3  67 CALM      30.23R
PONTIAC        CLOUDY    15   6  70 N6        30.22R WCI   6
RANTOUL        CLOUDY    15   8  73 N7        30.19R WCI   6
ROBINSON       CLOUDY    19  14  79 N3        30.21S
SPRINGFIELD    CLOUDY    20   8  60 N8        30.22R WCI  10
TAYLORVILLE    CLOUDY    19  12  73 N10       30.21R WCI   8
$$

...REGIONAL REPORTS...


CITY           SKY/WX    TMP DP  RH WIND       PRES   REMARKS
CHICAGO O`HARE PTCLDY    10   0  63 NW12      30.19R WCI  -5
KANKAKEE       MOCLDY    13   2  64 NW7       30.21R WCI   2
MOLINE         PTCLDY    11   2  67 N5        30.25R WCI   3
MOUNT STERLING CLOUDY    19  15  84 N6        30.21R WCI  10
MOUNT VERNON   CLOUDY    21  16  79 NE6       30.18S WCI  14
PITTSFIELD     CLOUDY    20  15  82 N6        30.22R WCI  12
QUINCY         CLOUDY    19  13  77 NE13      30.20R WCI   6
ROCKFORD       CLEAR      8   0  69 N7        30.24R WCI  -3
$$


CITY           SKY/WX    TMP DP  RH WIND       PRES   REMARKS
BURLINGTON     PTCLDY    13   4  67 N7        30.23R WCI   3
CEDAR RAPIDS   CLOUDY     5   1  83 NW6       30.25R WCI  -6
DES MOINES     CLOUDY    12   1  61 NE12      30.26R WCI  -2
KIRKSVILLE     CLOUDY    20  14  77 NE13      30.20R WCI   7
OTTUMWA        CLOUDY    13   5  70 N7        30.25R WCI   3
ST LOUIS       CLOUDY    24  18  77 CALM      30.19R
$$


CITY           SKY/WX    TMP DP  RH WIND       PRES   REMARKS
TERRE HAUTE    MOCLDY    13   7  77 NW3       30.20R
EVANSVILLE     CLOUDY    24  17  74 NE5       30.20R WCI  18
INDIANAPOLIS   CLOUDY    14   6  70 NW6       30.14S WCI   5
LAFAYETTE      CLOUDY    10   5  80 NW6       30.18R WCI   0
MADISON        CLEAR      4  -4  69 NW7       30.23R WCI  -8
MILWAUKEE      CLEAR      7  -5  57 NW10      30.20R WCI  -8
$$






USA.gov is the U.S. government's official web portal to all federal, state and local government web resources and services.